TimeCDT,TemperatureF,Dew PointF,Humidity,Sea Level PressureIn,VisibilityMPH,Wind Direction,Wind SpeedMPH,Gust SpeedMPH,PrecipitationIn,Events,Conditions,WindDirDegrees,DateUTC
12:15 AM,72.0,69.1,91,29.83,4.0,Calm,Calm,-,N/A,,Clear,0,2013-09-26 05:15:00
12:35 AM,72.1,69.3,91,29.83,5.0,Calm,Calm,-,N/A,,Clear,0,2013-09-26 05:35:00
12:55 AM,70.9,68.2,91,29.83,1.0,Calm,Calm,-,N/A,,Mist,0,2013-09-26 05:55:00
1:15 AM,70.2,67.5,91,29.83,1.5,Calm,Calm,-,N/A,,Mist,0,2013-09-26 06:15:00
1:35 AM,69.8,67.1,91,29.83,2.5,Calm,Calm,-,N/A,,Clear,0,2013-09-26 06:35:00
1:55 AM,71.4,68.9,92,29.83,5.0,Calm,Calm,-,N/A,,Clear,0,2013-09-26 06:55:00
2:15 AM,70.7,67.6,90,29.84,7.0,Calm,Calm,-,N/A,,Clear,0,2013-09-26 07:15:00
2:35 AM,69.6,66.7,91,29.84,5.0,Calm,Calm,-,N/A,,Clear,0,2013-09-26 07:35:00
2:55 AM,69.1,66.4,91,29.83,4.0,Calm,Calm,-,N/A,,Clear,0,2013-09-26 07:55:00
3:15 AM,68.7,66.0,91,29.83,2.0,Calm,Calm,-,N/A,,Clear,0,2013-09-26 08:15:00
3:35 AM,68.9,66.4,92,29.83,1.8,Calm,Calm,-,N/A,,Mist,0,2013-09-26 08:35:00
3:55 AM,68.4,65.7,91,29.84,7.0,Calm,Calm,-,N/A,,Clear,0,2013-09-26 08:55:00
4:15 AM,67.1,64.6,92,29.84,7.0,Calm,Calm,-,N/A,,Clear,0,2013-09-26 09:15:00
4:35 AM,66.7,64.0,91,29.84,7.0,Calm,Calm,-,N/A,,Clear,0,2013-09-26 09:35:00
4:55 AM,67.1,64.6,92,29.84,7.0,Calm,Calm,-,N/A,,Clear,0,2013-09-26 09:55:00
5:15 AM,67.6,65.3,92,29.85,7.0,Calm,Calm,-,N/A,,Clear,0,2013-09-26 10:15:00
5:35 AM,67.5,64.9,92,29.85,7.0,Calm,Calm,-,N/A,,Clear,0,2013-09-26 10:35:00
5:50 AM,66.2,64.4,94,29.87,6.0,South,4.6,-,N/A,,Partly Cloudy,180,2013-09-26 10:50:00
5:55 AM,67.3,64.8,92,29.86,7.0,Calm,Calm,-,N/A,,Clear,0,2013-09-26 10:55:00
6:50 AM,66.2,62.6,88,29.89,7.0,North,3.5,-,N/A,,Clear,360,2013-09-26 11:50:00
7:50 AM,69.8,68.0,94,29.90,7.0,North,3.5,-,N/A,,Clear,360,2013-09-26 12:50:00
8:50 AM,78.8,68.0,69,29.91,7.0,Calm,Calm,-,N/A,,Clear,0,2013-09-26 13:50:00
9:50 AM,82.4,64.4,54,29.94,7.0,Calm,Calm,-,N/A,,Clear,0,2013-09-26 14:50:00
10:50 AM,86.0,57.2,37,29.95,7.0,Calm,Calm,-,N/A,,Clear,0,2013-09-26 15:50:00
11:50 AM,87.8,55.4,33,29.94,7.0,WNW,4.6,-,N/A,,Clear,300,2013-09-26 16:50:00
11:55 AM,87.8,55.4,33,30.31,7.0,WNW,5.8,-,N/A,,Clear,300,2013-09-26 16:55:00
12:50 PM,89.6,55.4,31,29.92,7.0,NNW,6.9,-,N/A,,Clear,330,2013-09-26 17:50:00
1:50 PM,89.6,55.4,31,29.90,7.0,North,6.9,-,N/A,,Clear,10,2013-09-26 18:50:00
2:50 PM,91.4,53.6,28,29.89,7.0,North,6.9,-,N/A,,Clear,350,2013-09-26 19:50:00
3:50 PM,91.4,55.4,29,29.88,7.0,North,5.8,-,N/A,,Clear,360,2013-09-26 20:50:00
4:50 PM,89.6,55.4,31,29.87,7.0,North,5.8,-,N/A,,Clear,360,2013-09-26 21:50:00
5:55 PM,86.0,59.0,40,29.88,7.0,North,5.8,-,N/A,,Clear,360,2013-09-26 22:55:00
6:50 PM,80.6,62.6,54,29.89,7.0,North,4.6,-,N/A,,Clear,360,2013-09-26 23:50:00
7:15 PM,76.6,68.0,75,29.89,10.0,Calm,Calm,-,N/A,,Clear,0,2013-09-27 00:15:00
7:35 PM,73.6,67.1,80,29.90,10.0,Calm,Calm,-,N/A,,Clear,0,2013-09-27 00:35:00
7:55 PM,72.3,67.1,84,29.90,10.0,Calm,Calm,-,N/A,,Clear,0,2013-09-27 00:55:00
8:15 PM,71.1,66.9,87,29.90,7.0,Calm,Calm,-,N/A,,Clear,0,2013-09-27 01:15:00
8:35 PM,70.9,67.1,88,29.91,10.0,Calm,Calm,-,N/A,,Clear,0,2013-09-27 01:35:00
8:55 PM,70.0,66.6,89,29.91,7.0,Calm,Calm,-,N/A,,Clear,0,2013-09-27 01:55:00
9:15 PM,69.8,66.4,89,29.92,10.0,Calm,Calm,-,N/A,,Clear,0,2013-09-27 02:15:00
9:35 PM,69.4,66.2,89,29.93,10.0,Calm,Calm,-,N/A,,Clear,0,2013-09-27 02:35:00
9:55 PM,68.9,65.7,89,29.93,10.0,Calm,Calm,-,N/A,,Clear,0,2013-09-27 02:55:00
10:15 PM,68.9,65.8,90,29.93,7.0,Calm,Calm,-,N/A,,Clear,0,2013-09-27 03:15:00
10:35 PM,68.9,65.7,89,29.94,10.0,Calm,Calm,-,N/A,,Clear,0,2013-09-27 03:35:00
10:55 PM,68.5,65.3,89,29.94,7.0,Calm,Calm,-,N/A,,Clear,0,2013-09-27 03:55:00
11:15 PM,68.7,65.7,90,29.94,7.0,Calm,Calm,-,N/A,,Clear,0,2013-09-27 04:15:00
11:35 PM,68.0,64.9,90,29.94,7.0,Calm,Calm,-,N/A,,Clear,0,2013-09-27 04:35:00
11:55 PM,68.0,65.1,90,29.94,7.0,Calm,Calm,-,N/A,,Clear,0,2013-09-27 04:55:00